GW2260 Weather Reports


Display with metric or nautical units.
time (UTC)temp
F
wind
direction
speed
MPH
gust
MPH
rain 1hr
in
rain 24hr
in
rain mn
in
humidity
%
barometer
mb
20260906102938 66 121 1.0 2.0 0.00 0.01 0.00 95 1013.7
20260906101919 65 120 1.0 2.0 0.00 0.01 0.00 95 1013.8
20260906100917 66 137 1.0 2.0 0.00 0.01 0.00 95 1013.8
20260906095917 66 108 1.0 3.0 0.00 0.01 0.01 95 1013.9
20260906094919 66 0.0 1.0 0.00 0.01 0.01 95 1013.9
20260906094019 66 0.0 1.0 0.00 0.01 0.01 95 1014.1
20260906092920 66 36 1.0 2.0 0.00 0.01 0.01 95 1014.1
20260906091938 66 38 1.0 1.0 0.00 0.01 0.01 95 1014.4
20260906090917 66 29 1.0 2.0 0.00 0.01 0.01 95 1014.4
20260906085917 66 294 0.0 1.0 0.00 0.01 0.01 96 1014.6
20260906084917 66 32 2.0 3.0 0.00 0.01 0.01 96 1014.5
20260906083918 66 37 0.0 1.0 0.00 0.01 0.01 96 1014.7
20260906082917 65 81 0.0 1.0 0.00 0.01 0.01 96 1014.8
20260906081917 65 99 1.0 2.0 0.00 0.01 0.01 95 1014.8
20260906080917 65 0.0 0.0 0.00 0.01 0.01 95 1014.7
20260906075917 65 102 1.0 2.0 0.00 0.01 0.01 95 1014.7
20260906074917 66 0.0 0.0 0.00 0.01 0.01 96 1014.6
20260906073917 66 0.0 0.0 0.00 0.01 0.01 95 1014.5
20260906072937 66 109 0.0 1.0 0.00 0.01 0.01 96 1014.6
20260906071917 67 71 1.0 2.0 0.00 0.01 0.01 96 1014.6
20260906070917 67 211 1.0 2.0 0.00 0.01 0.01 96 1014.5
20260906065917 67 0.0 0.0 0.00 0.01 0.01 96 1014.4
20260906064917 68 0.0 0.0 0.00 0.01 0.01 96 1014.3
20260906063916 68 360 0.0 1.0 0.00 0.01 0.01 96 1014.2
20260906062938 67 0.0 0.0 0.00 0.01 0.01 95 1014.0
20260906061917 67 0.0 0.0 0.00 0.01 0.01 94 1013.8
20260906060918 67 0.0 0.0 0.00 0.01 0.01 94 1013.8
20260906055917 67 60 1.0 2.0 0.00 0.01 0.01 95 1013.6
20260906054917 67 0.0 0.0 0.00 0.01 0.01 95 1013.4
20260906053918 68 0.0 0.0 0.00 0.01 0.01 96 1013.4
20260906052917 68 0.0 1.0 0.00 0.01 0.01 95 1013.5
20260906051958 68 0.0 0.0 0.00 0.01 0.01 95 1013.6
20260906050917 69 0.0 0.0 0.00 0.01 0.01 94 1013.5
20260906045917 69 342 0.0 1.0 0.00 0.01 0.01 93 1013.3
20260906044917 70 25 1.0 1.0 0.01 0.01 0.01 93 1013.3
20260906043917 70 0.0 0.0 0.01 0.01 0.01 94 1013.2
20260906042917 70 0.0 0.0 0.01 0.01 0.01 94 1013.2
20260906041917 70 0.0 0.0 0.01 0.01 0.01 94 1013.2
20260906040917 70 205 0.0 1.0 0.01 0.01 0.01 94 1013.0
20260906035936 70 0.0 1.0 0.01 0.01 0.01 93 1013.0
20260906034918 71 214 1.0 3.0 0.00 0.00 0.00 92 1012.9
20260906033918 71 308 0.0 2.0 0.00 0.00 0.00 92 1012.9
20260906032917 71 203 2.0 3.0 0.00 0.00 0.00 92 1012.7
20260906031917 71 261 1.0 2.0 0.00 0.00 0.00 93 1012.8
20260906030918 71 226 1.0 4.0 0.00 0.00 0.00 93 1012.6
20260906025917 71 237 2.0 3.0 0.00 0.00 0.00 93 1012.7
20260906024916 71 235 1.0 3.0 0.00 0.00 0.00 93 1012.8
20260906023917 71 232 2.0 4.0 0.00 0.00 0.00 92 1012.8
20260906022917 71 224 1.0 5.0 0.00 0.00 0.00 91 1012.7
20260906021917 72 216 2.0 4.0 0.00 0.00 0.00 90 1012.8
20260906020917 74 231 1.0 3.0 0.00 0.00 0.00 87 1012.7
20260906015917 74 233 1.0 2.0 0.00 0.00 0.00 87 1012.7
20260906014917 75 212 3.0 5.0 0.00 0.00 0.00 85 1012.6
20260906013917 74 208 2.0 5.0 0.00 0.00 0.00 88 1012.6
20260906012920 73 231 2.0 6.0 0.00 0.00 0.00 87 1012.7
20260906011937 73 190 1.0 3.0 0.00 0.00 0.00 86 1012.7
20260906010917 73 197 2.0 6.0 0.00 0.00 0.00 86 1012.9
20260906005918 73 246 2.0 4.0 0.00 0.00 0.00 87 1012.9
20260906004917 73 208 2.0 4.0 0.00 0.00 0.00 87 1012.9
20260906003919 73 199 3.0 5.0 0.00 0.00 0.00 86 1012.9
20260906002937 74 197 2.0 3.0 0.00 0.00 0.00 83 1013.0
20260906001918 75 212 2.0 4.0 0.00 0.00 0.00 82 1013.1
20260906000917 75 205 2.0 4.0 0.00 0.00 0.00 85 1013.2
20260905235918 73 216 4.0 6.0 0.00 0.00 0.00 86 1013.3
20260905234917 74 219 3.0 6.0 0.00 0.00 0.00 84 1013.3
20260905233917 73 226 3.0 5.0 0.00 0.00 0.00 87 1013.3
20260905232937 73 202 2.0 3.0 0.00 0.00 0.00 84 1013.5
20260905231918 74 257 2.0 5.0 0.00 0.00 0.00 83 1013.7
20260905230917 74 301 0.0 2.0 0.00 0.00 0.00 82 1013.9
20260905225917 74 237 1.0 3.0 0.00 0.00 0.00 84 1014.0
20260905224917 75 212 3.0 5.0 0.00 0.00 0.00 83 1014.0
20260905223919 77 214 4.0 8.0 0.00 0.00 0.00 80 1014.2
20260905222917 76 207 2.0 7.0 0.00 0.00 0.00 83 1014.3
20260905221917 75 218 2.0 4.0 0.00 0.00 0.00 82 1014.3
20260905220937 75 231 3.0 4.0 0.00 0.00 0.00 82 1014.3
20260905215917 75 222 5.0 10.0 0.00 0.00 0.00 80 1014.5
20260905214917 76 113 2.0 5.0 0.00 0.00 0.00 78 1014.5
20260905213937 75 324 1.0 3.0 0.00 0.00 0.00 81 1014.5
20260905212917 75 235 2.0 5.0 0.00 0.00 0.00 80 1014.5
20260905211917 74 322 2.0 4.0 0.00 0.00 0.00 80 1014.6
20260905210917 74 259 1.0 5.0 0.00 0.00 0.00 80 1014.6
20260905205917 74 295 1.0 3.0 0.00 0.00 0.00 81 1014.6
20260905204937 73 214 3.0 5.0 0.00 0.00 0.00 80 1014.8
20260905203917 73 352 1.0 3.0 0.00 0.00 0.00 80 1014.9
20260905203037 73 216 1.0 4.0 0.00 0.00 0.00 79 1014.8
20260905201917 73 340 3.0 4.0 0.00 0.00 0.00 77 1014.7
20260905200917 73 300 1.0 2.0 0.00 0.00 0.00 79 1014.5
20260905195937 72 320 2.0 3.0 0.00 0.00 0.00 81 1014.4
20260905194917 73 305 1.0 2.0 0.00 0.00 0.00 77 1014.4
20260905193917 73 289 1.0 3.0 0.00 0.00 0.00 78 1014.6
20260905192917 73 276 2.0 4.0 0.00 0.00 0.00 77 1014.6
20260905191917 73 0.0 2.0 0.00 0.00 0.00 74 1014.3
20260905190917 72 293 1.0 2.0 0.00 0.00 0.00 76 1014.5
20260905185957 71 297 1.0 2.0 0.00 0.00 0.00 74 1014.4
20260905184918 71 296 1.0 2.0 0.00 0.00 0.00 75 1014.1
20260905183917 69 285 1.0 2.0 0.00 0.00 0.00 73 1014.1
20260905182917 68 158 1.0 1.0 0.00 0.00 0.00 77 1014.0
20260905181918 66 0.0 0.0 0.00 0.00 0.00 78 1014.1
20260905180917 64 122 0.0 1.0 0.00 0.00 0.00 80 1014.4
20260905175938 63 122 1.0 2.0 0.00 0.00 0.00 80 1014.1
20260905174917 61 129 1.0 3.0 0.00 0.00 0.00 80 1014.0
20260905173937 59 119 2.0 3.0 0.00 0.00 0.00 80 1013.8
20260905172918 58 122 2.0 2.0 0.00 0.00 0.00 78 1013.8
20260905171918 58 127 2.0 3.0 0.00 0.00 0.00 78 1013.7
20260905170917 58 108 2.0 3.0 0.00 0.00 0.00 77 1013.6
20260905165917 58 122 2.0 3.0 0.00 0.00 0.00 76 1013.4
20260905164917 59 91 2.0 3.0 0.00 0.00 0.00 73 1013.3
20260905163917 59 102 2.0 3.0 0.00 0.00 0.00 69 1013.2
20260905162957 58 115 3.0 3.0 0.00 0.00 0.00 69 1013.3
20260905161917 59 115 2.0 3.0 0.00 0.00 0.00 72 1013.3
20260905160917 59 104 1.0 3.0 0.00 0.00 0.00 73 1013.3
20260905155917 60 85 2.0 3.0 0.00 0.00 0.00 71 1013.3
20260905154917 60 117 2.0 3.0 0.00 0.00 0.00 70 1013.4
20260905153917 60 102 3.0 4.0 0.00 0.00 0.00 66 1013.3
20260905152937 59 113 3.0 4.0 0.00 0.00 0.00 70 1013.2
20260905151957 59 106 2.0 3.0 0.00 0.00 0.00 73 1013.2
20260905150917 58 83 3.0 5.0 0.00 0.00 0.00 74 1013.3
20260905145917 58 104 2.0 3.0 0.00 0.00 0.00 75 1013.4
20260905144917 57 117 2.0 3.0 0.00 0.00 0.00 82 1013.4
20260905143937 57 95 2.0 3.0 0.00 0.00 0.00 82 1013.4
20260905142937 57 106 2.0 3.0 0.00 0.00 0.00 81 1013.4
20260905141918 57 115 2.0 2.0 0.00 0.00 0.00 83 1013.5
20260905140917 58 122 2.0 3.0 0.00 0.00 0.00 83 1013.4
20260905135917 58 109 2.0 3.0 0.00 0.00 0.00 83 1013.5
20260905134917 58 104 2.0 3.0 0.00 0.00 0.00 80 1013.4
20260905133917 58 108 2.0 3.0 0.00 0.00 0.00 83 1013.1
20260905132937 58 98 2.0 4.0 0.00 0.00 0.00 82 1013.1
20260905131917 58 100 2.0 3.0 0.00 0.00 0.00 79 1013.2
20260905130917 58 96 2.0 3.0 0.00 0.00 0.00 78 1013.1
20260905125917 58 121 3.0 3.0 0.00 0.00 0.00 82 1013.3
20260905124917 58 106 3.0 3.0 0.00 0.00 0.00 78 1013.3
20260905123917 58 103 2.0 3.0 0.00 0.00 0.00 79 1013.3
20260905122917 58 105 2.0 3.0 0.00 0.00 0.00 84 1013.5
20260905121918 58 96 2.0 3.0 0.00 0.00 0.00 82 1013.6
20260905120917 59 109 2.0 3.0 0.00 0.00 0.00 82 1013.6
20260905115917 60 0.0 0.0 0.00 0.00 0.00 83 1013.7
20260905114917 60 96 2.0 3.0 0.00 0.00 0.00 80 1013.9
20260905113937 60 106 2.0 3.0 0.00 0.00 0.00 75 1013.8
20260905112938 59 111 2.0 3.0 0.00 0.00 0.00 77 1014.0
20260905111917 59 110 2.0 3.0 0.00 0.00 0.00 78 1014.1
20260905110917 60 116 2.0 3.0 0.00 0.00 0.00 83 1014.2
20260905105917 61 109 1.0 2.0 0.00 0.00 0.00 84 1014.4
20260905104917 61 121 2.0 4.0 0.00 0.00 0.00 80 1014.4
20260905103917 60 42 2.0 4.0 0.00 0.00 0.00 79 1014.6